Location: Gradaro
(45.0833°N, 10.8833°E)
Time: 00:20:29
(UTC+00:00)

Daily predictions for brighter satellites

Satellite Brightness Start Highest point End
(mag) Time Altitude Azimuth Time Altitude Azimuth Time Altitude Azimuth
FALCON 9 R/B 4.3 02:47:53 31° SE 02:47:53 31° SE 02:58:48 10° E
Cosmos 1943 4.4 03:19:36 39° E 03:19:36 39° E 03:23:46 10° SE
CZ-4C R/B 3.7 03:43:05 39° SSW 03:43:05 39° SSW 03:48:35 10° S
Cosmos 1603 4.3 03:44:50 51° SSE 03:44:50 51° SSE 03:49:01 10° SSE
Cosmos 2263 Rocket 2.0 04:12:53 72° WSW 04:13:24 81° WNW 04:19:01 10° NNE
Okean 1-7 3.8 04:15:49 42° S 04:15:49 42° S 04:18:45 10° S
Cosmos 1420 Rocket 4.1 04:15:56 60° N 04:15:56 60° N 04:20:20 10° NNE
GEOS 3 Rocket 3.7 04:10:31 10° SE 04:15:34 72° NE 04:16:45 52° NNW
SKYMED 2 3.8 04:12:50 10° SSE 04:17:07 65° ENE 04:17:58 52° NNE
Cosmos 1634 Rocket 3.9 04:14:22 10° S 04:20:35 85° E 04:26:47 10° N
Meteor 1-20 Rocket 4.1 04:18:15 10° SSW 04:24:05 78° W 04:29:57 10° N
USA 234 3.1 04:20:33 10° NE 04:27:06 82° NW 04:30:18 33° WSW
Cosmos 1627 Rocket 4.4 04:24:57 10° N 04:31:14 77° W 04:37:32 10° S
Cosmos 1741 Rocket 3.9 04:30:24 39° NNW 04:32:26 88° WSW 04:37:39 10° SSE
FENGYUN 3A 4.2 04:27:37 10° NNE 04:32:56 59° E 04:38:14 10° S
Cosmos 2195 Rocket 4.4 04:28:47 12° NNW 04:34:42 67° W 04:40:56 10° S
Okean 1 3.4 04:37:14 59° SSW 04:37:14 59° SSW 04:40:36 10° S
ATLAS CENTAUR R/B 3.6 04:36:18 14° N 04:38:17 19° NE 04:41:10 10° E
SJ-12 3.9 04:35:54 10° NNE 04:40:02 85° E 04:44:08 10° SSW
METEOR-M 4.3 04:37:40 10° NNE 04:43:02 74° ESE 04:48:22 10° S
Cosmos 1655 Rocket 4.4 04:36:57 10° N 04:43:07 62° ENE 04:49:17 10° SSE
Cosmos 1844 Rocket 4.0 04:40:09 10° S 04:45:21 41° ESE 04:50:33 10° NE
Cosmos 1092 Rocket 4.2 04:43:00 28° NW 04:45:45 45° W 04:51:31 10° SSW
Cosmos 1452 Rocket 3.6 04:43:54 32° WSW 04:46:01 51° WNW 04:51:12 10° NNE
USA 116 4.2 04:42:53 10° SSE 04:47:28 84° ENE 04:52:36 10° NNW
Timation 1 Rocket 4.3 04:43:58 20° SW 04:48:01 57° WNW 04:53:56 10° NNE
Cosmos 2142 Rocket 4.4 04:42:54 10° SSW 04:49:18 78° W 04:55:43 10° N
Cosmos 44 3.1 04:46:01 12° SSW 04:50:30 90° NW 04:55:03 10° NE
Cosmos 1850 Rocket 4.0 04:48:20 32° NW 04:50:42 60° WSW 04:55:56 10° S
CZ-4B R/B 3.7 04:46:47 10° NNE 04:52:23 64° ESE 04:58:00 10° S
Okean 3 3.5 04:49:18 14° N 04:52:53 78° E 04:57:05 10° SSE
Cosmos 371 Rocket 3.5 04:50:01 10° S 04:54:50 71° ESE 04:59:42 10° NNE
Meteor 1-18 Rocket 4.3 04:54:06 20° NNW 04:57:42 49° W 05:03:02 10° SSW
ALOS 2.1 04:54:32 10° N 04:59:13 75° WNW 05:03:52 10° SSW
Meteor 2-13 Rocket 4.5 04:54:07 10° N 05:00:18 86° E 05:06:28 10° S
PSLV R/B 4.2 04:57:18 10° N 05:01:13 42° WNW 05:05:06 10° SW
Cosmos 1943 3.9 05:01:28 29° W 05:02:15 30° WSW 05:07:04 10° SSW
Orbus 7S? 2.6 05:02:26 32° SSW 05:03:27 66° SE 05:05:57 10° NE
NOAA 6 4.1 04:58:40 10° NNE 05:03:50 81° ESE 05:08:58 10° SSW
COSMO-SKYMED 1 3.0 05:01:09 10° SSW 05:05:13 39° W 05:06:32 31° WNW
Cosmos 1536 4.3 05:01:34 10° SSE 05:05:21 39° E 05:09:09 10° NNE
SL-23 DEB 3.3 05:10:00 41° W 05:10:49 58° NNW 05:14:08 10° ENE
ATLAS 5 CENTAUR R/B 4.0 05:10:56 10° NNW 05:11:51 10° N 05:12:48 10° N
H-2A R/B 4.3 05:09:58 10° NNE 05:13:30 37° E 05:17:02 10° SSE
NOSS 3-2 (A) 4.1 05:10:05 10° SSW 05:15:38 56° ESE 05:21:54 10° NE
Cosmos 2221 Rocket 3.8 05:13:27 16° NNW 05:16:42 45° W 05:20:54 10° SSW
Cosmos 1733 Rocket 2.9 05:15:18 10° SSW 05:19:36 79° W 05:23:58 10° N
MOS 1-B 4.5 05:14:35 10° N 05:20:08 49° WNW 05:25:39 10° SW
Meteor 1-11 Rocket 4.0 05:14:44 10° S 05:20:28 75° E 05:26:22 10° NNE
Cosmos 405 2.9 05:17:08 10° N 05:20:41 87° E 05:24:12 10° S
PAYLOAD B 4.3 05:17:56 10° N 05:23:20 56° WNW 05:28:44 10° SSW
Helios 1A Rocket 2.8 05:21:26 10° N 05:25:25 59° WNW 05:29:22 10° SSW
Cosmos 2266 Rocket 4.0 05:20:15 10° N 05:26:30 88° ENE 05:32:36 10° S
Cosmos 1340 3.6 05:23:34 10° SW 05:26:42 25° WNW 05:29:52 10° NNW
USA 238 DEB 3.9 05:20:04 10° SSW 05:26:43 76° ESE 05:33:37 10° NE
USA 238 3.9 05:20:11 10° SSW 05:26:50 76° ESE 05:33:42 10° NE
Cosmos 1346 Rocket 3.6 05:23:36 10° SW 05:26:58 28° WNW 05:30:22 10° N
Okean O Rocket 1.7 05:23:28 10° N 05:27:46 54° WNW 05:32:04 10° SSW
Cosmos 1331 Rocket 3.9 05:24:04 10° SSW 05:29:11 66° WNW 05:34:22 10° NNE
Cosmos 2180 Rocket 4.5 05:24:27 10° SSW 05:30:29 59° WNW 05:36:36 10° N
CENTAUR R/B 4.2 05:27:37 10° S 05:32:57 37° ESE 05:39:05 10° NE
Cosmos 1500 3.2 05:31:56 10° SSW 05:35:41 54° WNW 05:39:26 10° N
Cosmos 44 Rocket 4.1 05:33:31 10° SSW 05:38:17 55° ESE 05:42:58 10° NE
Meteor 1-5 Rocket 4.3 05:33:24 10° SSW 05:39:18 66° WNW 05:45:06 10° N
Meteor 2-4 Rocket 4.0 05:38:49 10° NNW 05:43:55 41° W 05:48:54 10° SSW
Cosmos 1110 Rocket 4.2 05:39:16 10° SW 05:44:11 44° WNW 05:49:10 10° N
Cosmos 1674 Rocket 3.7 05:45:06 10° NNW 05:49:18 50° W 05:53:28 10° S
Okean-O 3.7 05:46:14 10° NNE 05:50:35 51° E 05:54:53 10° S
Cosmos 1975 Rocket 4.3 05:46:22 10° N 05:50:39 44° ENE 05:54:55 10° SSE
ADEOS Rocket 3.2 05:45:28 10° SSE 05:52:24 84° WSW 05:58:37 10° NNW
Cosmos 1066 Rocket 4.3 05:47:44 10° N 05:53:20 78° E 05:58:44 10° SSE
Cosmos 304 Rocket 3.7 05:48:39 10° SSW 05:53:25 74° WNW 05:58:13 10° NNE
YAOGAN 6 4.3 05:50:08 10° NNE 05:53:37 38° E 05:57:05 10° SSE
Cosmos 2278 Rocket 4.1 05:48:33 10° S 05:53:37 35° ESE 05:58:44 10° NE
IRIDIUM 104 4.3 05:48:26 10° N 05:53:40 75° W 05:58:51 10° S
Cosmos 2263 Rocket 3.6 05:54:50 10° W 05:58:16 16° NW 06:01:42 10° N
CZ-2C R/B 3.9 05:55:50 10° SSE 06:00:34 89° ENE 06:05:24 10° NNW
Cosmos 1441 Rocket 4.0 05:57:53 10° S 06:01:47 59° E 06:05:40 10° NNE
Cosmos 1486 Rocket 4.0 05:56:40 10° NNW 06:01:59 83° WSW 06:07:14 10° SSE
IRIDIUM 114 4.4 05:57:37 10° N 06:02:46 62° W 06:07:53 10° SSW
Cosmos 1378 Rocket 3.9 06:02:38 10° NNW 06:06:53 46° W 06:11:07 10° SSW
USA 81 4.1 06:03:08 10° NNW 06:08:20 61° W 06:13:31 10° S
USA 234 3.9 06:03:43 10° NE 06:09:39 39° NNW 06:15:34 10° W
Envisat 3.2 06:09:39 10° NNE 06:14:47 83° ESE 06:19:51 10° SSW
Cosmos 1833 Rocket 3.5 06:10:48 10° NNW 06:16:18 50° ENE 06:21:46 10° SE
NOSS 3-2 (C) 3.5 06:11:40 10° SW 06:17:27 88° NW 06:24:03 10° NE
